Regional Weather Roundup
Issued by NWS

Home | Current Version | Previous Version | Graphics & Text | Print | Product List | Glossary On
Versions: 1 2 3 4 5 6 7 8 9 10 11 12 13 14 15 16 17 18 19 20 21 22 23 24 25 26 27 28 29 30 31 32 33 34 35 36 37 38 39 40 41 42 43 44 45 46 47 48 49 50
000
ASUS43 KLSX 261707
RWRMO

WEATHER SUMMARY FOR MISSOURI
NATIONAL WEATHER SERVICE SPRINGFIELD MO
1200 PM CDT TUE JUL 26 2016

NOTE: "FAIR" INDICATES FEW OR NO CLOUDS BELOW 12,000 FEET WITH NO
       SIGNIFICANT WEATHER AND/OR OBSTRUCTIONS TO VISIBILITY.
       CURRENT SKY AND/OR WEATHER CONDITIONS ARE NOT AVAILABLE FOR
       CHILLICOTHE AND FARMINGTON.

MOZ001>031-035>038-043-044-053-054-261800-
...NORTHERN AND WESTERN MISSOURI...

CITY           SKY/WX    TMP DP  RH WIND       PRES   REMARKS
KANSAS CTY INT MOSUNNY   83  67  58 E9        30.07F
KANSAS C DTWN  SUNNY     85  65  51 NE12      30.05F
LEE`S SUMMIT   MOSUNNY   82  67  60 E9        30.08S
ST JOSEPH      MOSUNNY   83  67  58 CALM      30.06F
CHILLICOTHE      N/A     83  65  54 SE3       30.08F
KIRKSVILLE     MOSUNNY   84  63  49 NE7       30.09S

$$
MOZ066>068-077>081-088>096-101>105-261800-
...SOUTHWEST MISSOURI...

CITY           SKY/WX    TMP DP  RH WIND       PRES   REMARKS
SPRINGFIELD    MOSUNNY   84  72  67 CALM      30.04F
JOPLIN         PTSUNNY   83  75  77 N5        30.03S HX  90
BRANSON        PTSUNNY   82  72  69 NE5       30.06F

$$
MOZ032>034-039>042-045>050-055>058-069>072-261800-
...CENTRAL MISSOURI...

CITY           SKY/WX    TMP DP  RH WIND       PRES   REMARKS
COLUMBIA       PTSUNNY   83  73  72 N5        30.06S
JEFFERSON CITY PTSUNNY   83  72  69 CALM      30.03F
ROLLA          PTSUNNY   84  73  69 VRB3      30.04F HX  90
SEDALIA        PTSUNNY   84  72  67 NE9       30.07S
WHITEMAN AFB   MOSUNNY   83  72  69 E7        30.05
OSAGE BEACH    CLOUDY    82  74  76 NE3       30.05F

$$
MOZ051-052-059>065-261800-
...EAST CENTRAL MISSOURI...

CITY           SKY/WX    TMP DP  RH WIND       PRES   REMARKS
ST LOUIS INTL  PTSUNNY   87  73  62 VRB5      30.03F HX  94
SPIRIT OF STL  PTSUNNY   87  76  69 VRB5      30.01F HX  97
ST CHARLES     SUNNY     84  75  74 E5        30.02F HX  92

$$
MOZ072>076-082>087-097>100-106>115-261800-
...SOUTH CENTRAL AND SOUTHEAST MISSOURI...

CITY           SKY/WX    TMP DP  RH WIND       PRES   REMARKS
CAPE GIRARDEAU SUNNY     87  75  67 VRB5      30.00F HX  96
FARMINGTON     LGT RAIN  75  73  94 E9        30.05F
POPLAR BLUFF   SUNNY     89  75  63 CALM      30.00F HX  99
WEST PLAINS    TSTM      78  72  81 S12G23    30.08R VSB 1/2

$$



USA.gov is the U.S. government's official web portal to all federal, state and local government web resources and services.